[[{"header":{"parameterUnit":"m.s-1","parameterCategory":1,"la1":30.2991,"la2":30.254,"lo1":-89.0895,"lo2":-89.0444,"dy":0.0017,"dx":0.0017,"nx":28,"ny":28,"refTime":"2024-08-14T03:00:00:Z","depth":0,"parameterNumber":2,"parameterNumberName":"U-component_of_WINDS"},"data":[0,0,0,0,0,0,0,0,0,0,0,0,0,0,0,0,0,0,0,0,0,0,0,0,0,0,0,0,0,0,0,0,0,0,0,0,0,0,0,0,0,0,0,0,0,0,0,0,0,0,0,0,0,0,0,0,0,0,3.5431,3.5432,0,3.5526,3.5527,3.5528,3.5517,3.5516,3.5514,3.5513,3.5602,3.5606,3.561,0,0,0,0,0,0,0,0,0,0,0,0,0,3.5235,3.5238,3.543,3.5432,3.5433,3.5526,3.5527,3.5528,3.5518,3.5516,3.5514,3.5512,3.5601,3.5606,3.561,0,0,0,0,0,0,0,0,0,0,0,0,0,3.5324,3.524,3.543,3.5439,3.5441,3.5526,3.5527,3.5529,3.5518,3.5516,3.5513,3.5511,3.56,3.5605,3.5611,3.5691,0,0,3.5628,3.5631,0,0,0,0,0,0,0,0,3.5319,3.5331,3.5436,3.5438,3.5441,3.5508,3.5491,3.5583,3.5518,3.5488,3.5513,3.551,3.5572,3.558,3.5603,3.5695,3.5699,3.5629,3.5632,3.5635,3.5636,0,0,0,0,0,0,0,3.5313,3.5327,3.5468,3.5438,3.5441,3.5437,3.5447,3.5508,3.5541,3.5491,3.549,3.5502,3.5573,3.5597,3.5605,3.57,3.5629,3.5634,3.5637,3.5639,3.5867,3.5869,0,0,0,0,0,0,3.5305,3.5322,3.5465,3.5471,3.5373,3.5442,3.5453,3.5488,3.5541,3.5547,3.5504,3.5501,3.5589,3.5598,3.5608,3.5706,3.5635,3.564,3.5643,3.5864,3.5867,3.587,0,0,0,0,0,0,3.5301,3.5318,3.5461,3.5396,3.5414,3.5448,3.5487,3.5491,3.5516,3.5551,3.5556,3.5523,3.5587,3.56,3.5672,3.5709,3.5642,3.5648,3.5861,3.5865,3.5869,3.5902,0,0,0,0,0,0,3.5295,3.5317,3.5348,3.5397,3.5418,3.5524,3.5489,3.5495,3.5526,3.5524,3.557,3.5575,3.5586,3.5663,3.5677,3.5715,3.5652,3.5858,3.5863,3.5868,3.5898,3.5907,3.5915,0,0,0,0,0,3.5288,3.5351,3.5349,3.5367,3.5458,3.5527,3.5538,3.5552,3.5529,3.5561,3.5584,3.5574,3.5704,3.5671,3.5686,3.5727,3.5855,3.5861,3.5867,3.5894,3.5905,3.5915,0,0,0,0,0,0,3.53,3.5357,3.5356,3.5437,3.5478,3.5525,3.5564,3.5562,3.5608,3.5603,3.5616,3.5627,3.57,3.5721,3.5683,3.5809,3.5776,3.5786,3.5792,3.5802,3.5811,3.5802,3.5657,0,0,0,0,0,3.5313,3.5366,3.5412,3.5479,3.55,3.5529,3.5559,3.5567,3.5609,3.5625,3.5653,3.5692,3.5742,3.5774,3.5821,3.5903,3.5913,3.5939,3.5947,3.5954,3.5961,3.6007,3.602,3.589,3.589,3.589,0,0,3.5337,3.5376,3.5407,3.5482,3.5515,3.5568,3.5543,3.56,3.5639,3.5632,3.5703,3.5726,3.577,3.5848,3.5884,3.5868,3.6,3.5962,3.5967,3.597,3.6015,3.6027,3.6038,3.5894,3.5893,3.5892,0,0,3.541,3.5445,3.5505,3.554,3.5592,3.5612,3.5627,3.5676,3.5692,3.5765,3.5762,3.5809,3.5894,3.5926,3.5954,3.6047,3.604,3.6063,3.6104,3.615,3.616,3.6169,3.6202,3.6214,3.607,3.607,3.607,0,3.5433,3.5516,3.5535,3.5595,3.5628,3.5631,3.5692,3.5724,3.5787,3.5809,3.5792,3.5903,3.5932,3.6019,3.6042,3.6065,3.6082,3.6055,3.6158,3.6167,3.6175,3.6207,3.6219,3.6072,3.6072,3.6072,3.6072,0,3.5542,3.56,3.5642,3.5708,3.5747,3.5806,3.5835,3.5872,3.5879,3.5901,3.5975,3.6013,3.6069,3.6091,3.6096,3.618,3.6169,3.6155,3.6121,3.619,3.622,3.6232,3.6076,3.6075,3.6074,3.6074,0,0,3.5617,3.5699,3.5714,3.5746,3.5806,3.585,3.5912,3.5971,3.6002,3.6048,3.6099,3.6175,3.6164,3.6196,3.6205,3.6246,3.6318,3.6227,3.6228,3.6241,3.6413,3.6421,3.6435,3.6316,3.6318,3.632,3.6409,0,3.5694,3.5805,3.5828,3.5922,3.5977,3.5983,3.6037,3.608,3.6104,3.6152,3.6178,3.6231,3.6213,3.6233,3.6274,3.63,3.6352,3.6295,3.6361,3.6363,3.6347,3.645,3.6458,3.6539,3.6421,3.6423,3.6424,0,3.5797,3.585,3.5952,3.601,3.6033,3.6081,3.614,3.6187,3.6237,3.6251,3.6291,3.6298,3.6361,3.633,3.6417,3.6378,3.6408,3.6426,3.6429,3.6433,3.6395,3.6454,3.6566,3.6577,3.6443,3.6441,3.644,0,3.584,3.5937,3.6012,3.6039,3.6108,3.6142,3.6172,3.622,3.6256,3.6307,3.6331,3.6388,3.6418,3.6462,3.6484,3.6459,3.6571,3.654,3.6583,3.6583,3.6602,3.66,3.6717,3.6626,3.6626,3.6626,3.6625,0,3.5922,3.5983,3.6033,3.6078,3.6148,3.6175,3.6243,3.6273,3.6317,3.6368,3.6377,3.6424,3.6452,3.6503,3.6521,3.6592,3.6606,3.6618,3.6622,3.6616,3.6614,3.6632,3.6626,3.6629,3.6628,3.6628,3.6627,0,3.5979,3.6015,3.6097,3.6159,3.6177,3.6225,3.6278,3.6322,3.6349,3.6414,3.643,3.6472,3.6533,3.6562,3.6636,3.6648,3.6728,3.6729,3.6712,3.6712,3.6754,3.6749,3.6885,3.6904,3.6802,3.6803,3.6803,0,3.6027,3.6076,3.6146,3.6183,3.6215,3.6273,3.6312,3.6342,3.6381,3.6446,3.6482,3.6546,3.6597,3.6695,3.673,3.6788,3.6789,3.6833,3.6797,3.6791,3.6788,3.6784,3.6789,3.6837,3.6838,3.6839,3.684,0,3.6108,3.6126,3.6182,3.6247,3.6294,3.6346,3.6396,3.6425,3.6463,3.6507,3.6573,3.6614,3.6694,3.6755,3.6818,3.6847,3.685,3.6852,3.6865,3.6857,3.6846,3.6852,3.6727,3.6847,3.6847,3.6846,3.6846,3.6845,3.6161,3.6206,3.6264,3.6328,3.6371,3.6419,3.6465,3.6501,3.6557,3.6627,3.6642,3.6711,3.6764,3.6848,3.6881,3.6935,3.6924,3.6943,3.6947,3.6951,3.6953,3.6841,3.6946,3.6946,3.6946,3.6946,3.6946,0,3.6242,3.6282,3.6341,3.6414,3.6465,3.647,3.6528,3.6569,3.6631,3.6682,3.6735,3.6812,3.6874,3.6918,3.6981,3.7016,3.7019,3.7031,3.7027,3.7034,3.6959,3.6941,3.7028,3.7028,3.7028,3.7028,3.7028,3.7028,3.6289,3.6366,3.6392,3.6491,3.6529,3.66,3.6633,3.6678,3.672,3.6806,3.686,3.689,3.6938,3.7006,3.7064,3.7075,3.7097,3.7109,3.712,3.7048,3.7039,3.703,3.7014,3.7114,3.7115,3.719,3.7191,3.7192]},{"header":{"parameterUnit":"m.s-1","parameterCategory":1,"la1":30.2991,"la2":30.254,"lo1":-89.0895,"lo2":-89.0444,"dy":0.0017,"dx":0.0017,"nx":28,"ny":28,"refTime":"2024-08-14T03:00:00:Z","depth":0,"parameterNumber":3,"parameterNumberName":"V-component_of_WINDS"},"data":[0,0,0,0,0,0,0,0,0,0,0,0,0,0,0,0,0,0,0,0,0,0,0,0,0,0,0,0,0,0,0,0,0,0,0,0,0,0,0,0,0,0,0,0,0,0,0,0,0,0,0,0,0,0,0,0,0,0,2.3488,2.3489,0,2.3538,2.3539,2.3539,2.355,2.355,2.3549,2.3549,2.3595,2.3597,2.3598,0,0,0,0,0,0,0,0,0,0,0,0,0,2.3398,2.3399,2.3488,2.3489,2.3489,2.3538,2.3539,2.3539,2.355,2.355,2.3549,2.3549,2.3595,2.3597,2.3599,0,0,0,0,0,0,0,0,0,0,0,0,0,2.3441,2.34,2.3488,2.3501,2.3502,2.3538,2.3539,2.3539,2.355,2.355,2.3549,2.3549,2.3594,2.3597,2.3599,2.3624,0,0,2.3606,2.3607,0,0,0,0,0,0,0,0,2.3439,2.3444,2.3498,2.35,2.3502,2.3537,2.3524,2.3567,2.355,2.3532,2.3549,2.3548,2.3576,2.358,2.359,2.3626,2.3628,2.3606,2.3608,2.3609,2.3609,0,0,0,0,0,0,0,2.3436,2.3442,2.3508,2.3499,2.3501,2.3502,2.3508,2.3532,2.3556,2.3533,2.3534,2.354,2.3577,2.3588,2.3591,2.3629,2.3606,2.3608,2.361,2.3611,2.3687,2.3687,0,0,0,0,0,0,2.3431,2.344,2.3506,2.3509,2.3468,2.3505,2.3511,2.3526,2.3556,2.356,2.3541,2.3541,2.3584,2.3589,2.3593,2.3624,2.3609,2.3611,2.3612,2.3686,2.3687,2.3687,0,0,0,0,0,0,2.3429,2.3437,2.3504,2.3475,2.3483,2.3507,2.3524,2.3528,2.3539,2.3562,2.3565,2.3548,2.3584,2.359,2.3616,2.3626,2.3612,2.3614,2.3685,2.3686,2.3687,2.3686,0,0,0,0,0,0,2.3426,2.3436,2.3447,2.3475,2.3485,2.3528,2.3525,2.3529,2.3543,2.3544,2.3569,2.3573,2.3584,2.3613,2.3619,2.3629,2.3616,2.3685,2.3686,2.3687,2.3685,2.3687,2.3688,0,0,0,0,0,2.3423,2.3444,2.3447,2.3455,2.3499,2.3528,2.3534,2.3547,2.3544,2.3554,2.3569,2.3572,2.3624,2.3615,2.3622,2.3633,2.3684,2.3685,2.3687,2.3685,2.3687,2.3688,0,0,0,0,0,0,2.3414,2.3447,2.3452,2.3482,2.3503,2.353,2.3543,2.3549,2.3569,2.3569,2.3583,2.3589,2.3615,2.3626,2.3616,2.3659,2.3654,2.3656,2.365,2.3652,2.3653,2.365,2.3618,0,0,0,0,0,2.3416,2.3438,2.3466,2.349,2.35,2.352,2.3533,2.3542,2.3563,2.3571,2.3588,2.3606,2.3627,2.364,2.366,2.3687,2.3693,2.3698,2.37,2.3701,2.3703,2.3718,2.372,2.3692,2.3692,2.3692,0,0,2.3419,2.344,2.3453,2.3488,2.3505,2.3527,2.3527,2.3549,2.3565,2.3574,2.36,2.3613,2.3635,2.3662,2.3675,2.3673,2.3712,2.3703,2.3703,2.3705,2.3719,2.3722,2.3724,2.3693,2.3693,2.3693,0,0,2.3436,2.3455,2.3477,2.3494,2.352,2.3534,2.3539,2.3566,2.3575,2.3602,2.3609,2.3627,2.3663,2.3678,2.369,2.3714,2.3717,2.372,2.3727,2.3741,2.3744,2.3746,2.3754,2.3756,2.3722,2.3722,2.3722,0,2.3437,2.3471,2.3487,2.351,2.3525,2.3536,2.3558,2.3573,2.3603,2.3613,2.3611,2.3655,2.3671,2.3701,2.3707,2.3717,2.3723,2.3717,2.3742,2.3745,2.3747,2.3754,2.3757,2.3722,2.3722,2.3722,2.3722,0,2.347,2.3494,2.3508,2.354,2.3556,2.3578,2.3596,2.3611,2.3619,2.3632,2.3659,2.3678,2.3702,2.371,2.3717,2.3741,2.374,2.374,2.3735,2.3749,2.3757,2.376,2.3722,2.3722,2.3722,2.3722,0,0,2.3482,2.3523,2.3528,2.3543,2.3572,2.359,2.3612,2.3638,2.3649,2.367,2.3688,2.3718,2.3719,2.3733,2.3741,2.3754,2.3771,2.3753,2.3753,2.3755,2.3799,2.3798,2.3801,2.3774,2.3774,2.3775,2.3797,0,2.3503,2.3545,2.3561,2.3594,2.3616,2.3626,2.3646,2.3665,2.3678,2.3697,2.371,2.3731,2.373,2.3739,2.3752,2.3766,2.378,2.3765,2.379,2.379,2.3784,2.3805,2.3805,2.3825,2.38,2.38,2.3801,0,2.3533,2.3556,2.3593,2.362,2.3629,2.3647,2.3671,2.369,2.3711,2.372,2.3736,2.3744,2.3766,2.376,2.379,2.378,2.3791,2.3799,2.38,2.3803,2.3796,2.3808,2.3831,2.3834,2.3805,2.3805,2.3805,0,2.3538,2.3578,2.3605,2.3617,2.365,2.3661,2.3675,2.3697,2.3711,2.3732,2.3741,2.3763,2.3775,2.3792,2.3805,2.38,2.3834,2.3829,2.384,2.384,2.3847,2.3846,2.3872,2.3854,2.3854,2.3854,2.3854,0,2.356,2.3582,2.3608,2.3625,2.3649,2.3666,2.3689,2.3703,2.3722,2.374,2.375,2.3767,2.3784,2.3802,2.3812,2.3836,2.3841,2.3847,2.385,2.3847,2.3846,2.3854,2.3852,2.3855,2.3855,2.3855,2.3855,0,2.357,2.3589,2.3619,2.3648,2.3655,2.3672,2.3696,2.3711,2.3725,2.3748,2.3754,2.3775,2.3797,2.3812,2.384,2.3847,2.3872,2.3874,2.3865,2.3866,2.3876,2.3875,2.3908,2.3913,2.3892,2.3892,2.3892,0,2.3583,2.36,2.3631,2.3645,2.3659,2.3681,2.3697,2.3713,2.3728,2.3754,2.3766,2.379,2.3809,2.3844,2.386,2.3882,2.3884,2.3894,2.3887,2.3884,2.3884,2.3883,2.3884,2.3895,2.3895,2.3895,2.3896,0,2.3603,2.3612,2.3634,2.366,2.3678,2.3698,2.3718,2.3729,2.3749,2.3765,2.3788,2.3804,2.3833,2.3855,2.3878,2.3891,2.3896,2.3898,2.3901,2.3898,2.3892,2.3895,2.3868,2.3897,2.3897,2.3897,2.3896,2.3896,2.3615,2.3631,2.3656,2.368,2.3697,2.3716,2.3733,2.3748,2.3769,2.3795,2.3803,2.3828,2.3848,2.388,2.3893,2.3911,2.391,2.3915,2.3917,2.3918,2.3918,2.3889,2.3915,2.3915,2.3915,2.3915,2.3915,0,2.3636,2.3653,2.3675,2.3704,2.3723,2.3728,2.375,2.3765,2.3787,2.3807,2.3826,2.3853,2.3875,2.3893,2.3915,2.3926,2.3929,2.3932,2.3931,2.3934,2.3917,2.3912,2.3929,2.3929,2.3929,2.3929,2.3929,2.3929,2.365,2.3677,2.3688,2.3724,2.3739,2.3765,2.3777,2.3794,2.381,2.384,2.3859,2.3871,2.389,2.3913,2.3933,2.3938,2.3945,2.3947,2.3952,2.3936,2.3935,2.3933,2.3928,2.3949,2.3949,2.3967,2.3967,2.3967]}]]